QPF
0.00 0.00 0.00 0.00 0.00 0.00 0.00 0.00 0.00 0.00 0.00 0.00 0.00 0.00 0.00 0.00 0.00 0.00 0.00 0.00 0.00 0.00 0.00 0.00 0.00 0.00 0.00 0.00 0.00 0.00 0.00 0.00 0.01 0.00 0.00 0.00 0.00 0.00 0.00 0.00 0.00 0.00 0.00 0.00 0.00 0.00 0.00
0.00 0.00 0.00 0.00 0.00 0.00 0.00 0.00 0.00 0.00 0.00 0.00 0.00 0.00 0.00 0.00 0.00 0.00 0.00 0.00 0.00 0.00 0.00 0.00 0.00 0.00 0.00 0.00 0.00 0.00 0.00 0.00 0.01 0.00 0.00 0.00 0.00 0.00 0.00 0.00 0.00 0.00 0.00 0.00 0.00 0.00 0.00
0.00 0.00 0.00 0.00 0.00 0.00 0.00 0.00 0.00 0.00 0.00 0.00 0.00 0.00 0.00 0.00 0.00 0.00 0.00 0.00 0.00 0.00 0.00 0.00 0.00 0.00 0.00 0.00 0.00 0.00 0.00 0.00 0.00 0.01 0.00 0.00 0.00 0.00 0.00 0.00 0.00 0.00 0.00 0.00 0.00 0.00 0.00
0.00 0.00 0.00 0.00 0.00 0.00 0.00 0.00 0.00 0.00 0.00 0.00 0.00 0.00 0.00 0.00 0.00 0.00 0.00 0.00 0.00 0.00 0.00 0.00 0.00 0.00 0.00 0.00 0.00 0.00 0.00 0.00 0.00 0.00 0.00 0.00 0.00 0.00 0.00 0.00 0.00 0.00 0.00 0.00 0.00 0.00 0.00
0.00 0.00 0.00 0.00 0.00 0.00 0.00 0.00 0.00 0.00 0.00 0.00 0.00 0.00 0.00 0.00 0.00 0.00 0.00 0.00 0.00 0.00 0.00 0.00 0.00 0.00 0.00 0.00 0.00 0.00 0.00 0.00 0.00 0.00 0.00 0.00 0.00 0.00 0.00 0.00 0.00 0.00 0.00 0.01 0.00 0.00 0.00
0.00 0.00 0.00 0.00 0.00 0.00 0.00 0.00 0.00 0.00 0.00 0.00 0.00 0.00 0.00 0.00 0.00 0.00 0.00 0.00 0.00 0.00 0.00 0.00 0.00 0.00 0.00 0.00 0.00 0.00 0.00 0.00 0.00 0.00 0.00 0.00 0.00 0.00 0.00 0.00 0.00 0.00 0.00 0.00 0.00 0.01 0.00
0.00 0.00 0.00 0.00 0.00 0.00 0.00 0.00 0.00 0.00 0.00 0.00 0.00 0.00 0.00 0.00 0.00 0.00 0.00 0.00 0.00 0.00 0.00 0.00 0.00 0.00 0.00 0.00 0.00 0.00 0.00 0.00 0.00 0.00 0.00 0.00 0.00 0.00 0.00 0.00 0.00 0.00 0.00 0.00 0.00 0.00 0.00
0.00 0.00 0.00 0.00 0.00 0.00 0.00 0.00 0.00 0.00 0.00 0.00 0.00 0.00 0.00 0.00 0.00 0.00 0.00 0.00 0.00 0.00 0.00 0.00 0.00 0.00 0.00 0.00 0.00 0.00 0.00 0.00 0.00 0.00 0.00 0.00 0.00 0.00 0.00 0.00 0.00 0.00 0.00 0.00 0.00 0.00 0.00
0.00 0.00 0.00 0.00 0.00 0.00 0.00 0.00 0.00 0.00 0.00 0.00 0.00 0.00 0.00 0.00 0.00 0.00 0.00 0.00 0.00 0.00 0.00 0.00 0.00 0.00 0.00 0.00 0.00 0.00 0.00 0.00 0.00 0.00 0.00 0.00 0.00 0.00 0.00 0.00 0.00 0.00 0.00 0.00 0.00 0.00 0.00
0.00 0.00 0.00 0.00 0.00 0.00 0.00 0.00 0.00 0.00 0.00 0.00 0.00 0.00 0.00 0.00 0.00 0.00 0.00 0.00 0.00 0.00 0.00 0.00 0.00 0.00 0.00 0.00 0.00 0.00 0.00 0.00 0.00 0.00 0.00 0.00 0.00 0.00 0.00 0.00 0.00 0.00 0.00 0.00 0.00 0.00 0.00
0.00 0.00 0.00 0.00 0.00 0.00 0.00 0.00 0.00 0.00 0.00 0.00 0.00 0.00 0.00 0.00 0.00 0.00 0.00 0.00 0.00 0.00 0.00 0.00 0.00 0.00 0.00 0.00 0.00 0.00 0.00 0.00 0.00 0.00 0.00 0.00 0.00 0.00 0.00 0.00 0.00 0.00 0.00 0.00 0.00 0.00 0.00
0.00 0.00 0.00 0.00 0.00 0.00 0.00 0.00 0.00 0.00 0.00 0.00 0.00 0.00 0.00 0.00 0.00 0.00 0.00 0.00 0.00 0.00 0.00 0.00 0.00 0.00 0.00 0.00 0.00 0.00 0.00 0.00 0.00 0.00 0.00 0.00 0.00 0.00 0.00 0.00 0.00 0.00 0.00 0.00 0.00 0.00 0.00
0.00 0.00 0.00 0.00 0.00 0.00 0.00 0.00 0.00 0.00 0.00 0.00 0.00 0.00 0.00 0.00 0.00 0.00 0.00 0.00 0.00 0.00 0.00 0.00 0.00 0.00 0.00 0.00 0.00 0.00 0.00 0.00 0.00 0.00 0.00 0.00 0.00 0.00 0.00 0.00 0.00 0.00 0.00 0.00 0.00 0.00 0.00
0.00 0.00 0.00 0.00 0.00 0.00 0.00 0.00 0.00 0.00 0.00 0.00 0.00 0.00 0.00 0.00 0.00 0.00 0.00 0.00 0.00 0.00 0.00 0.00 0.00 0.00 0.00 0.00 0.00 0.00 0.00 0.00 0.00 0.00 0.00 0.00 0.00 0.00 0.00 0.00 0.00 0.00 0.00 0.00 0.00 0.00 0.00
0.00 0.00 0.00 0.00 0.00 0.00 0.00 0.00 0.00 0.00 0.00 0.00 0.00 0.00 0.00 0.00 0.00 0.00 0.00 0.00 0.00 0.00 0.00 0.00 0.00 0.00 0.00 0.00 0.00 0.00 0.00 0.00 0.00 0.00 0.00 0.00 0.00 0.00 0.00 0.00 0.00 0.00 0.00 0.00 0.00 0.00 0.00
0.00 0.00 0.00 0.00 0.00 0.00 0.00 0.00 0.00 0.00 0.00 0.00 0.00 0.00 0.00 0.00 0.00 0.00 0.00 0.00 0.00 0.00 0.00 0.00 0.00 0.00 0.00 0.00 0.00 0.00 0.00 0.00 0.00 0.00 0.00 0.00 0.00 0.00 0.00 0.00 0.00 0.00 0.00 0.00 0.00 0.00 0.00
0.00 0.00 0.00 0.00 0.00 0.00 0.00 0.00 0.00 0.00 0.00 0.00 0.00 0.00 0.00 0.00 0.00 0.00 0.00 0.00 0.00 0.00 0.00 0.00 0.00 0.00 0.00 0.00 0.00 0.00 0.00 0.00 0.00 0.00 0.00 0.00 0.00 0.00 0.00 0.00 0.00 0.00 0.00 0.00 0.00 0.00 0.00
0.00 0.00 0.00 0.00 0.00 0.00 0.00 0.00 0.00 0.00 0.00 0.00 0.00 0.00 0.00 0.00 0.00 0.00 0.00 0.00 0.00 0.00 0.00 0.00 0.00 0.00 0.00 0.00 0.00 0.00 0.00 0.00 0.00 0.00 0.00 0.00 0.00 0.00 0.00 0.00 0.00 0.00 0.00 0.00 0.00 0.00 0.00
0.00 0.00 0.00 0.00 0.00 0.00 0.00 0.00 0.00 0.00 0.00 0.00 0.00 0.00 0.00 0.00 0.00 0.00 0.00 0.00 0.00 0.00 0.00 0.00 0.00 0.00 0.00 0.00 0.00 0.00 0.00 0.00 0.00 0.00 0.00 0.00 0.00 0.00 0.00 0.00 0.00 0.00 0.00 0.00 0.00 0.00 0.00
0.00 0.00 0.00 0.00 0.00 0.00 0.00 0.00 0.00 0.00 0.00 0.00 0.00 0.00 0.00 0.00 0.00 0.00 0.00 0.00 0.00 0.00 0.00 0.00 0.00 0.00 0.00 0.00 0.00 0.00 0.00 0.00 0.00 0.00 0.00 0.00 0.00 0.00 0.00 0.00 0.00 0.00 0.00 0.00 0.00 0.00 0.00
0.00 0.00 0.00 0.00 0.00 0.00 0.00 0.00 0.00 0.00 0.00 0.00 0.00 0.00 0.00 0.00 0.00 0.00 0.00 0.00 0.00 0.00 0.00 0.00 0.00 0.00 0.00 0.00 0.00 0.00 0.00 0.00 0.00 0.00 0.00 0.00 0.00 0.00 0.00 0.00 0.00 0.00 0.00 0.00 0.00 0.00 0.00
0.00 0.00 0.00 0.00 0.00 0.00 0.00 0.00 0.00 0.00 0.00 0.00 0.00 0.00 0.00 0.00 0.00 0.00 0.00 0.00 0.00 0.00 0.00 0.00 0.00 0.00 0.00 0.00 0.00 0.00 0.00 0.00 0.00 0.00 0.00 0.00 0.00 0.00 0.00 0.00 0.00 0.00 0.00 0.00 0.00 0.00 0.00
0.00 0.00 0.00 0.00 0.00 0.00 0.00 0.00 0.00 0.00 0.00 0.00 0.00 0.00 0.00 0.00 0.00 0.00 0.00 0.00 0.00 0.00 0.00 0.00 0.00 0.00 0.00 0.00 0.00 0.00 0.00 0.00 0.00 0.00 0.00 0.00 0.00 0.00 0.00 0.00 0.00 0.00 0.00 0.00 0.00 0.00 0.00
0.00 0.00 0.00 0.00 0.00 0.00 0.00 0.00 0.00 0.00 0.00 0.00 0.00 0.00 0.00 0.00 0.00 0.00 0.00 0.00 0.00 0.00 0.00 0.00 0.00 0.00 0.00 0.00 0.00 0.00 0.00 0.00 0.00 0.00 0.00 0.00 0.00 0.00 0.00 0.00 0.00 0.00 0.00 0.00 0.00 0.00 0.00
0.00 0.00 0.00 0.00 0.00 0.00 0.00 0.00 0.00 0.00 0.00 0.00 0.00 0.00 0.00 0.00 0.00 0.00 0.00 0.00 0.00 0.00 0.00 0.00 0.00 0.00 0.00 0.00 0.00 0.00 0.00 0.00 0.00 0.00 0.00 0.00 0.00 0.00 0.00 0.00 0.00 0.00 0.00 0.00 0.00 0.00 0.00
0.00 0.00 0.00 0.00 0.00 0.00 0.00 0.00 0.00 0.00 0.00 0.00 0.00 0.00 0.00 0.00 0.00 0.00 0.00 0.00 0.00 0.00 0.00 0.00 0.00 0.00 0.00 0.00 0.00 0.00 0.00 0.00 0.00 0.00 0.00 0.00 0.00 0.00 0.00 0.00 0.00 0.00 0.00 0.00 0.00 0.00 0.00
0.00 0.00 0.00 0.00 0.00 0.00 0.00 0.00 0.00 0.00 0.00 0.00 0.00 0.00 0.00 0.00 0.00 0.00 0.00 0.00 0.00 0.00 0.00 0.00 0.00 0.00 0.00 0.00 0.00 0.00 0.00 0.00 0.00 0.00 0.00 0.00 0.00 0.00 0.00 0.00 0.00 0.00 0.00 0.00 0.00 0.00 0.00
0.00 0.00 0.00 0.00 0.00 0.00 0.00 0.00 0.00 0.00 0.00 0.00 0.00 0.00 0.00 0.00 0.00 0.00 0.00 0.00 0.00 0.00 0.00 0.00 0.00 0.00 0.00 0.00 0.00 0.00 0.00 0.00 0.00 0.00 0.00 0.00 0.00 0.00 0.00 0.00 0.00 0.00 0.00 0.00 0.00 0.00 0.00
0.00 0.00 0.00 0.00 0.00 0.00 0.00 0.00 0.00 0.00 0.00 0.00 0.00 0.00 0.00 0.00 0.00 0.00 0.00 0.00 0.00 0.00 0.00 0.00 0.00 0.00 0.00 0.00 0.00 0.00 0.00 0.00 0.00 0.00 0.00 0.00 0.00 0.00 0.00 0.00 0.00 0.00 0.00 0.00 0.00 0.00 0.00
MSLP
1018.41 1018.06 1017.71 1017.38 1016.94 1016.50 1016.12 1015.78 1015.44 1015.04 1014.63 1014.19 1013.73 1013.31 1012.89 1012.40 1012.06 1011.76 1011.57 1011.25 1010.99 1010.92 1010.82 1010.59 1010.41 1010.09 1009.68 1008.79 1007.17 1006.41 1006.15 1006.38 1006.31 1006.42 1006.60 1006.89 1007.16 1007.46 1007.45 1007.59 1007.46 1007.40 1007.03 1006.52 1006.64 1007.25 1008.13
1018.75 1018.35 1017.95 1017.48 1017.04 1016.62 1016.18 1015.80 1015.49 1015.12 1014.58 1014.10 1013.70 1013.24 1012.70 1012.25 1011.98 1011.71 1011.51 1011.17 1010.85 1010.77 1010.62 1010.37 1010.24 1010.10 1009.62 1008.00 1006.44 1006.48 1006.63 1006.95 1006.72 1006.76 1006.69 1006.74 1006.70 1006.88 1007.20 1007.49 1007.59 1007.60 1007.46 1007.26 1007.28 1007.72 1008.31
1019.05 1018.70 1018.22 1017.79 1017.34 1016.85 1016.38 1015.92 1015.50 1015.08 1014.62 1014.09 1013.56 1013.04 1012.57 1012.17 1011.85 1011.53 1011.35 1011.08 1010.81 1010.59 1010.44 1010.18 1010.12 1009.93 1008.98 1007.15 1006.43 1006.76 1006.96 1007.08 1006.72 1006.54 1006.67 1006.34 1006.48 1006.76 1007.10 1007.37 1007.52 1007.62 1007.94 1007.84 1008.13 1008.22 1008.81
1019.28 1018.91 1018.51 1018.06 1017.62 1017.17 1016.66 1016.12 1015.59 1015.13 1014.64 1014.08 1013.47 1012.86 1012.41 1012.06 1011.59 1011.28 1011.07 1010.84 1010.69 1010.37 1010.31 1010.24 1010.09 1009.74 1008.01 1006.35 1006.46 1006.90 1007.00 1007.03 1006.88 1006.95 1006.86 1006.62 1006.63 1006.98 1007.48 1007.84 1008.07 1008.34 1008.22 1008.69 1008.54 1008.30 1008.89
1019.57 1019.13 1018.67 1018.26 1017.84 1017.37 1016.85 1016.28 1015.68 1015.07 1014.47 1013.85 1013.21 1012.62 1012.13 1011.74 1011.39 1011.00 1010.76 1010.48 1010.33 1010.19 1010.06 1010.16 1010.08 1009.47 1007.44 1006.36 1006.36 1006.09 1006.43 1006.58 1006.57 1006.49 1006.27 1006.32 1006.49 1007.44 1007.98 1008.57 1009.29 1009.54 1009.42 1009.29 1008.70 1008.42 1008.74
1019.80 1019.39 1018.96 1018.48 1017.98 1017.47 1016.97 1016.38 1015.76 1015.07 1014.34 1013.65 1013.16 1012.60 1012.03 1011.57 1011.15 1010.70 1010.40 1010.25 1010.22 1010.14 1010.12 1010.08 1009.59 1009.23 1007.13 1006.11 1005.77 1005.82 1006.19 1006.27 1006.35 1006.38 1006.61 1006.81 1007.53 1008.14 1008.89 1009.31 1009.70 1009.91 1010.01 1009.63 1009.21 1008.81 1008.86
1020.15 1019.69 1019.27 1018.77 1018.23 1017.63 1016.96 1016.35 1015.77 1015.10 1014.43 1013.68 1012.87 1012.39 1011.82 1011.17 1010.77 1010.50 1010.39 1010.46 1010.51 1010.11 1009.68 1008.68 1008.19 1007.58 1006.50 1005.76 1005.51 1005.86 1005.93 1006.13 1006.29 1006.61 1007.19 1007.60 1008.31 1008.57 1008.79 1008.76 1008.99 1009.54 1009.85 1009.68 1009.14 1009.02 1009.30
1020.41 1020.00 1019.55 1018.95 1018.29 1017.62 1016.94 1016.19 1015.46 1014.88 1014.28 1013.66 1013.06 1012.22 1011.50 1010.85 1010.39 1009.88 1010.00 1009.42 1008.58 1008.49 1008.45 1007.63 1007.43 1007.10 1006.35 1005.82 1005.81 1005.85 1005.90 1006.39 1006.75 1007.31 1007.57 1008.09 1008.09 1008.17 1008.18 1008.37 1008.89 1009.24 1009.56 1009.29 1009.07 1009.01 1009.42
1020.73 1020.19 1019.59 1018.95 1018.31 1017.63 1016.90 1016.11 1015.24 1014.41 1013.68 1013.05 1012.48 1011.93 1011.26 1010.65 1010.26 1010.12 1009.47 1008.38 1007.81 1007.93 1008.32 1007.09 1006.71 1006.35 1005.77 1005.86 1005.78 1005.75 1006.00 1006.41 1006.96 1007.66 1007.98 1008.31 1007.97 1007.53 1007.81 1007.94 1008.60 1008.90 1009.10 1009.09 1009.14 1009.29 1009.51
1021.04 1020.45 1019.84 1019.19 1018.46 1017.63 1016.77 1015.91 1015.12 1014.32 1013.47 1012.72 1012.29 1011.72 1011.08 1010.43 1010.47 1009.66 1008.77 1007.84 1007.68 1007.74 1007.99 1006.77 1006.11 1005.16 1005.36 1005.43 1005.70 1005.36 1005.66 1006.25 1006.96 1007.53 1008.29 1008.30 1007.63 1007.47 1007.50 1007.67 1008.09 1008.42 1008.05 1008.77 1009.29 1010.03 1010.47
1021.24 1020.70 1020.05 1019.35 1018.63 1017.85 1017.01 1016.17 1015.25 1014.27 1013.37 1012.55 1011.89 1011.50 1011.04 1010.85 1010.25 1009.23 1008.29 1007.82 1007.59 1007.71 1007.55 1006.21 1005.38 1004.57 1004.99 1005.34 1005.53 1005.62 1005.54 1005.92 1006.84 1007.48 1008.16 1007.74 1007.44 1007.22 1007.27 1007.08 1007.44 1007.72 1007.80 1008.90 1010.15 1010.94 1011.27
1021.38 1020.80 1020.13 1019.35 1018.60 1017.84 1017.03 1016.13 1015.23 1014.25 1013.26 1012.30 1011.45 1011.09 1010.82 1010.54 1010.26 1008.14 1007.67 1007.62 1007.70 1008.23 1006.96 1005.73 1004.96 1004.88 1005.21 1005.32 1005.50 1005.74 1005.77 1005.97 1006.69 1007.41 1007.88 1007.80 1007.10 1006.83 1006.39 1006.42 1006.79 1007.51 1008.52 1010.04 1011.19 1011.92 1012.50
1021.35 1020.74 1020.08 1019.37 1018.61 1017.82 1016.95 1016.04 1015.00 1013.91 1012.90 1011.89 1011.08 1010.40 1010.56 1009.70 1008.89 1007.86 1007.69 1007.82 1008.75 1008.24 1006.96 1006.26 1005.70 1005.47 1005.57 1005.85 1005.90 1005.98 1006.40 1006.82 1007.42 1008.06 1008.36 1007.86 1007.15 1006.32 1006.00 1006.53 1006.94 1007.83 1009.67 1011.45 1012.71 1013.20 1012.68
1021.40 1020.72 1020.05 1019.35 1018.60 1017.68 1016.73 1015.74 1014.61 1013.51 1012.48 1011.29 1010.21 1009.47 1009.46 1009.03 1008.30 1008.11 1008.05 1008.79 1009.05 1008.11 1007.34 1006.48 1006.24 1006.19 1006.26 1006.18 1006.21 1006.49 1006.90 1007.55 1007.78 1008.26 1008.84 1008.30 1007.23 1006.36 1005.83 1005.99 1006.89 1008.05 1009.38 1011.23 1012.60 1013.68 1012.87
1021.51 1020.83 1020.11 1019.32 1018.51 1017.63 1016.68 1015.64 1014.50 1013.20 1012.03 1010.83 1009.55 1009.29 1009.36 1008.27 1008.04 1008.50 1008.87 1009.55 1008.94 1008.42 1007.64 1007.15 1006.65 1006.60 1006.68 1006.48 1006.53 1006.81 1007.28 1007.58 1007.60 1007.93 1008.57 1008.57 1007.71 1006.26 1005.85 1005.79 1006.22 1008.25 1009.56 1010.38 1012.08 1013.55 1013.26
1021.49 1020.90 1020.23 1019.44 1018.59 1017.69 1016.70 1015.62 1014.34 1012.97 1011.71 1010.65 1010.13 1009.55 1008.88 1007.95 1007.93 1008.32 1009.19 1009.84 1009.40 1008.51 1007.74 1007.39 1007.26 1007.04 1007.11 1007.00 1007.15 1007.41 1007.42 1007.13 1007.19 1007.30 1007.36 1008.54 1008.29 1007.07 1006.29 1006.18 1006.85 1007.37 1008.79 1010.52 1012.05 1013.25 1013.41
1021.61 1021.01 1020.30 1019.47 1018.59 1017.65 1016.62 1015.49 1014.23 1012.81 1011.28 1010.20 1010.15 1009.94 1008.73 1008.13 1008.16 1009.15 1010.45 1010.42 1009.57 1008.45 1008.04 1007.85 1007.74 1007.72 1007.74 1007.61 1007.55 1007.66 1007.72 1007.50 1007.30 1007.47 1007.72 1008.46 1008.89 1007.77 1007.12 1007.14 1007.40 1008.27 1009.10 1010.56 1011.84 1012.63 1012.74
1021.75 1021.17 1020.45 1019.66 1018.78 1017.83 1016.81 1015.72 1014.48 1013.16 1011.50 1010.40 1010.94 1010.72 1008.90 1008.35 1009.57 1011.54 1011.55 1010.87 1009.93 1009.13 1008.55 1008.38 1008.17 1008.36 1008.36 1008.30 1008.26 1008.17 1008.06 1008.16 1007.67 1007.60 1008.23 1008.66 1009.28 1009.20 1008.18 1007.24 1007.31 1007.81 1008.57 1009.99 1011.51 1012.50 1012.45
1021.96 1021.36 1020.69 1020.05 1019.20 1018.22 1017.16 1016.14 1015.03 1013.75 1012.94 1012.72 1012.67 1012.13 1009.53 1009.19 1011.49 1012.72 1012.20 1011.39 1010.62 1010.08 1009.78 1009.41 1009.37 1009.25 1009.08 1009.13 1009.24 1008.96 1008.76 1008.68 1008.30 1008.45 1008.80 1008.95 1009.79 1009.95 1008.83 1008.18 1007.66 1007.91 1008.23 1008.99 1010.16 1010.71 1011.16
1022.09 1021.55 1021.01 1020.39 1019.52 1018.55 1017.49 1016.33 1015.22 1014.06 1013.16 1013.16 1013.60 1013.68 1012.67 1012.40 1013.68 1013.57 1013.43 1012.74 1011.69 1010.94 1010.78 1010.52 1010.42 1010.03 1010.04 1010.07 1010.02 1010.04 1009.76 1009.39 1009.17 1009.25 1009.30 1009.31 1010.32 1010.39 1010.11 1009.38 1008.91 1008.71 1008.41 1008.87 1009.09 1010.19 1009.94
1022.14 1021.70 1021.24 1020.60 1019.79 1018.89 1017.91 1016.76 1015.53 1014.27 1013.13 1013.26 1014.83 1016.63 1016.40 1015.72 1015.38 1014.93 1014.36 1013.79 1013.13 1012.56 1012.03 1011.47 1011.45 1011.49 1011.44 1011.35 1011.23 1011.13 1010.77 1010.34 1010.01 1009.99 1010.01 1010.41 1010.92 1010.86 1010.35 1009.72 1009.33 1008.79 1008.39 1008.41 1009.04 1008.43 1008.61
1022.43 1021.90 1021.41 1020.82 1020.15 1019.39 1018.53 1017.56 1016.36 1014.78 1013.58 1014.71 1016.88 1017.59 1017.19 1017.07 1016.51 1015.82 1015.51 1015.31 1014.46 1014.00 1013.38 1012.80 1012.63 1012.19 1011.94 1012.08 1012.24 1012.17 1011.90 1011.80 1011.32 1011.06 1011.16 1011.54 1011.65 1011.58 1010.91 1009.66 1009.24 1008.63 1008.10 1007.97 1008.02 1008.07 1007.92
1022.67 1022.14 1021.64 1021.08 1020.51 1019.92 1019.17 1018.39 1017.57 1016.52 1015.09 1016.86 1018.05 1018.07 1017.87 1018.33 1017.80 1017.27 1017.06 1016.40 1015.61 1015.03 1014.18 1013.64 1013.43 1013.07 1012.71 1012.86 1012.88 1012.48 1012.43 1012.18 1011.88 1011.93 1012.15 1012.40 1012.46 1012.65 1011.85 1010.64 1009.61 1008.66 1007.88 1007.81 1007.68 1008.20 1008.77
1022.92 1022.43 1021.94 1021.49 1020.98 1020.43 1019.84 1019.18 1018.57 1018.01 1017.64 1018.08 1018.75 1018.73 1018.60 1019.16 1018.59 1018.34 1017.84 1017.25 1016.60 1016.21 1015.68 1014.52 1013.92 1013.57 1013.46 1013.06 1012.51 1012.58 1012.55 1012.35 1012.27 1012.05 1012.05 1012.53 1013.09 1013.11 1012.81 1011.64 1010.13 1008.53 1008.18 1007.79 1008.44 1008.83 1008.82
1023.11 1022.76 1022.32 1021.88 1021.44 1020.93 1020.43 1019.85 1019.34 1018.96 1018.64 1018.57 1018.89 1019.02 1019.41 1019.67 1019.33 1018.73 1018.23 1017.82 1017.21 1016.66 1016.20 1015.31 1014.44 1014.18 1014.09 1013.87 1013.78 1013.63 1013.53 1013.05 1012.29 1012.14 1012.32 1012.67 1013.11 1013.56 1013.25 1012.16 1010.33 1008.68 1008.32 1008.49 1009.05 1009.33 1009.27
1023.32 1022.96 1022.57 1022.14 1021.68 1021.25 1020.80 1020.30 1019.87 1019.50 1019.25 1018.99 1019.33 1019.30 1019.56 1019.85 1019.46 1018.93 1018.73 1018.51 1018.29 1017.76 1017.11 1015.93 1014.90 1014.52 1014.43 1014.65 1014.81 1014.85 1014.65 1013.68 1013.23 1012.78 1012.66 1013.16 1013.25 1013.69 1013.91 1013.09 1011.17 1009.23 1008.80 1008.68 1008.99 1009.41 1009.20
1023.39 1023.09 1022.72 1022.38 1021.93 1021.56 1021.14 1020.71 1020.28 1019.95 1019.72 1019.65 1019.60 1019.49 1019.70 1020.01 1019.33 1019.04 1018.82 1018.75 1018.52 1018.43 1018.18 1017.38 1016.60 1015.74 1015.49 1015.85 1015.93 1015.94 1015.39 1014.37 1014.05 1013.61 1013.72 1013.78 1014.20 1014.29 1013.94 1013.29 1011.27 1009.95 1009.55 1009.28 1009.55 1009.26 1008.76
1023.44 1023.09 1022.81 1022.42 1022.04 1021.64 1021.28 1020.92 1020.54 1020.32 1020.04 1019.94 1019.95 1019.68 1019.88 1020.12 1019.34 1018.81 1018.53 1018.40 1018.42 1018.43 1018.39 1017.92 1017.47 1017.21 1016.82 1017.04 1017.14 1016.82 1016.18 1015.36 1014.88 1014.11 1013.90 1014.28 1014.60 1014.82 1014.39 1013.58 1012.00 1010.49 1009.82 1010.31 1010.10 1009.24 1009.18
1023.38 1023.12 1022.74 1022.43 1022.03 1021.70 1021.36 1021.06 1020.71 1020.51 1020.35 1020.14 1020.28 1019.89 1019.71 1019.99 1019.23 1018.76 1018.20 1017.79 1017.67 1017.74 1018.31 1018.39 1018.48 1018.06 1017.56 1017.66 1017.67 1017.28 1016.88 1016.24 1015.94 1015.41 1014.30 1014.57 1014.27 1014.42 1014.20 1012.76 1011.69 1011.12 1010.91 1010.45 1010.21 1009.91 1009.40
Thickness
5723 5726 5729 5732 5736 5741 5745 5749 5753 5757 5762 5767 5772 5777 5781 5787 5790 5793 5795 5798 5801 5802 5803 5805 5806 5808 5812 5814 5822 5843 5846 5846 5849 5847 5837 5829 5819 5813 5804 5808 5816 5808 5817 5825 5826 5818 5808
5722 5725 5729 5733 5736 5740 5745 5749 5752 5756 5762 5767 5772 5776 5782 5787 5790 5793 5796 5800 5803 5804 5805 5808 5809 5809 5811 5804 5841 5842 5843 5840 5842 5840 5838 5835 5827 5828 5816 5812 5809 5817 5817 5818 5821 5816 5812
5723 5725 5728 5731 5735 5739 5744 5748 5752 5756 5761 5766 5772 5777 5782 5787 5790 5794 5797 5800 5804 5806 5807 5809 5810 5812 5812 5817 5839 5839 5838 5835 5841 5840 5833 5841 5838 5826 5822 5814 5824 5817 5805 5811 5807 5811 5803
5723 5726 5728 5731 5734 5738 5742 5747 5751 5756 5761 5766 5772 5778 5783 5786 5792 5795 5798 5801 5804 5807 5807 5808 5811 5812 5808 5841 5840 5835 5836 5832 5838 5839 5834 5838 5837 5824 5816 5822 5811 5802 5803 5781 5807 5813 5808
5723 5726 5729 5732 5735 5739 5743 5747 5752 5757 5762 5768 5773 5779 5784 5788 5792 5796 5799 5803 5805 5806 5808 5808 5810 5811 5811 5842 5832 5841 5839 5828 5833 5838 5841 5844 5836 5814 5812 5792 5780 5781 5765 5775 5792 5812 5807
5722 5725 5728 5732 5735 5739 5743 5748 5753 5759 5765 5770 5774 5779 5784 5789 5793 5798 5801 5804 5805 5806 5807 5807 5812 5804 5823 5823 5836 5841 5842 5838 5829 5830 5825 5820 5804 5792 5786 5778 5754 5766 5766 5773 5774 5798 5802
5720 5723 5727 5730 5734 5739 5744 5749 5753 5759 5764 5771 5778 5782 5787 5793 5797 5801 5803 5803 5801 5800 5805 5809 5813 5814 5823 5838 5845 5835 5841 5833 5829 5818 5797 5804 5786 5773 5786 5792 5796 5785 5774 5772 5787 5800 5793
5717 5720 5724 5729 5734 5740 5745 5751 5757 5761 5766 5772 5777 5784 5790 5796 5801 5806 5806 5807 5812 5813 5795 5817 5817 5817 5827 5836 5819 5828 5840 5816 5809 5791 5801 5789 5774 5795 5804 5801 5793 5788 5782 5778 5793 5799 5793
5713 5717 5722 5728 5733 5739 5745 5752 5759 5765 5771 5777 5782 5787 5793 5799 5803 5805 5810 5816 5824 5822 5793 5810 5818 5818 5826 5830 5817 5818 5827 5817 5802 5790 5789 5775 5795 5807 5805 5797 5787 5784 5780 5782 5789 5796 5796
5709 5714 5719 5724 5730 5738 5745 5753 5759 5766 5773 5779 5783 5788 5794 5800 5803 5809 5812 5824 5825 5823 5771 5799 5810 5825 5829 5830 5815 5836 5834 5820 5804 5787 5783 5783 5802 5803 5802 5794 5792 5779 5803 5801 5795 5780 5759
5704 5709 5714 5720 5727 5734 5741 5748 5756 5765 5772 5779 5785 5789 5793 5796 5803 5808 5819 5823 5825 5816 5749 5806 5813 5843 5832 5819 5821 5823 5837 5822 5796 5793 5788 5786 5795 5795 5789 5800 5803 5795 5812 5798 5787 5766 5770
5698 5704 5710 5717 5723 5730 5738 5746 5754 5762 5771 5779 5786 5790 5793 5796 5798 5817 5822 5823 5816 5766 5758 5798 5817 5811 5811 5816 5817 5819 5820 5828 5818 5799 5795 5790 5810 5808 5805 5815 5812 5811 5793 5775 5762 5756 5735
5693 5698 5705 5711 5719 5726 5734 5742 5752 5761 5770 5780 5786 5793 5793 5800 5806 5816 5819 5808 5757 5746 5793 5788 5797 5805 5801 5798 5804 5807 5798 5793 5779 5770 5770 5786 5795 5812 5818 5802 5807 5794 5764 5733 5737 5727 5734
5688 5694 5700 5706 5714 5722 5731 5739 5750 5759 5768 5780 5790 5796 5797 5802 5808 5810 5808 5776 5751 5772 5777 5799 5795 5792 5784 5793 5797 5795 5785 5774 5788 5779 5757 5760 5761 5797 5817 5807 5788 5783 5771 5734 5726 5720 5740
5682 5688 5694 5701 5709 5717 5725 5735 5745 5757 5767 5779 5790 5793 5794 5803 5805 5802 5784 5744 5751 5764 5782 5781 5786 5781 5780 5790 5794 5790 5778 5774 5784 5784 5763 5750 5763 5805 5813 5815 5811 5781 5764 5775 5731 5724 5728
5678 5682 5688 5695 5703 5711 5720 5730 5741 5753 5765 5774 5780 5785 5790 5799 5800 5793 5762 5745 5757 5772 5782 5781 5768 5777 5766 5776 5777 5776 5774 5790 5789 5790 5796 5776 5757 5791 5804 5812 5803 5800 5789 5756 5736 5733 5727
5672 5677 5683 5690 5698 5706 5716 5726 5737 5750 5763 5773 5777 5773 5786 5793 5792 5770 5741 5742 5758 5777 5778 5771 5766 5765 5767 5768 5769 5763 5774 5786 5792 5788 5789 5775 5763 5776 5793 5787 5777 5771 5765 5750 5746 5729 5724
5666 5671 5677 5683 5691 5700 5709 5719 5729 5741 5756 5765 5762 5751 5780 5785 5753 5728 5736 5747 5757 5763 5769 5764 5767 5762 5760 5761 5761 5763 5767 5768 5785 5788 5771 5773 5747 5744 5763 5791 5793 5786 5773 5760 5736 5736 5720
5658 5663 5669 5674 5682 5690 5700 5709 5719 5730 5738 5738 5738 5737 5767 5771 5725 5719 5730 5742 5747 5745 5747 5749 5746 5749 5754 5751 5747 5754 5757 5770 5774 5770 5767 5768 5737 5723 5747 5767 5781 5777 5773 5763 5746 5739 5723
5651 5655 5660 5665 5672 5680 5690 5700 5710 5720 5729 5729 5728 5727 5730 5730 5710 5717 5717 5720 5727 5739 5735 5734 5735 5739 5735 5733 5734 5733 5735 5752 5758 5760 5762 5759 5729 5733 5718 5742 5756 5756 5769 5758 5758 5726 5742
5643 5647 5651 5656 5662 5670 5678 5689 5699 5711 5721 5721 5704 5692 5693 5694 5699 5702 5705 5709 5710 5706 5716 5719 5717 5715 5715 5714 5717 5717 5724 5728 5741 5742 5742 5736 5723 5728 5730 5737 5741 5747 5757 5760 5744 5757 5752
5632 5636 5640 5645 5651 5657 5664 5673 5684 5698 5709 5697 5684 5680 5673 5672 5676 5692 5682 5684 5694 5691 5697 5702 5700 5705 5709 5704 5705 5701 5707 5707 5710 5720 5720 5712 5708 5710 5714 5734 5731 5732 5747 5753 5752 5757 5753
5621 5625 5629 5634 5638 5643 5649 5656 5664 5674 5687 5670 5661 5662 5665 5653 5663 5671 5667 5672 5679 5681 5689 5693 5691 5692 5695 5694 5695 5695 5697 5698 5704 5703 5697 5694 5687 5682 5680 5701 5708 5707 5733 5740 5751 5734 5732
5610 5613 5617 5620 5624 5628 5633 5639 5645 5652 5656 5653 5647 5647 5651 5652 5650 5650 5655 5660 5666 5666 5666 5675 5682 5681 5685 5687 5689 5688 5685 5684 5682 5685 5685 5675 5671 5661 5660 5682 5664 5714 5722 5725 5718 5721 5727
5599 5601 5603 5606 5609 5612 5617 5622 5627 5632 5637 5639 5636 5636 5631 5629 5630 5641 5644 5645 5647 5651 5657 5664 5671 5672 5668 5669 5662 5657 5654 5665 5676 5675 5672 5666 5654 5649 5648 5648 5674 5704 5705 5704 5697 5705 5715
5587 5588 5590 5592 5596 5599 5603 5608 5613 5617 5621 5625 5623 5623 5621 5619 5627 5631 5629 5630 5629 5629 5636 5647 5656 5656 5657 5647 5645 5636 5633 5644 5647 5659 5657 5648 5643 5642 5627 5631 5636 5678 5695 5703 5695 5676 5705
5577 5577 5579 5581 5584 5587 5591 5596 5600 5603 5607 5610 5611 5613 5610 5608 5611 5617 5616 5617 5618 5616 5613 5619 5628 5634 5637 5625 5624 5619 5619 5634 5627 5632 5635 5628 5621 5618 5616 5615 5637 5667 5671 5678 5659 5674 5695
5567 5568 5569 5572 5575 5579 5582 5586 5590 5593 5596 5599 5600 5602 5599 5594 5603 5609 5612 5609 5605 5602 5606 5608 5612 5610 5610 5604 5604 5602 5605 5611 5614 5623 5622 5613 5602 5601 5598 5599 5607 5652 5657 5643 5653 5668 5674
5560 5559 5562 5565 5568 5571 5575 5578 5581 5584 5586 5589 5589 5593 5593 5592 5597 5600 5604 5607 5605 5602 5590 5586 5589 5592 5590 5587 5588 5587 5592 5591 5592 5595 5610 5598 5601 5597 5596 5604 5623 5630 5632 5637 5638 5642 5653